Total_Precipitation_Accumulation
0.06 0.06 0.06 0.05 0.04 0.05 0.06 0.06 0.07 0.08 0.10 0.13 0.17 0.18 0.23 0.24 0.21 0.20 0.17 0.13 0.11 0.15 0.25 0.35 0.50 0.71 0.91 1.01 1.04 0.97 0.91 0.83 0.73 0.65 0.63 0.65 0.75 0.85 0.92 0.87 0.90 0.94 0.91
0.03 0.03 0.03 0.03 0.02 0.02 0.03 0.03 0.04 0.05 0.06 0.08 0.09 0.12 0.16 0.16 0.15 0.18 0.19 0.19 0.16 0.15 0.23 0.28 0.35 0.50 0.77 1.00 1.10 1.06 1.00 0.98 0.94 0.87 0.76 0.72 0.75 0.82 0.92 0.97 0.83 0.76 0.73
0.01 0.01 0.01 0.01 0.01 0.02 0.03 0.03 0.03 0.03 0.04 0.06 0.08 0.10 0.11 0.12 0.13 0.16 0.20 0.22 0.22 0.20 0.22 0.31 0.35 0.41 0.60 0.85 1.08 1.26 1.13 1.08 1.12 1.10 0.95 0.83 0.78 0.83 0.85 0.96 0.98 0.88 0.77
0.01 0.02 0.02 0.02 0.01 0.02 0.05 0.06 0.06 0.06 0.06 0.07 0.10 0.13 0.13 0.14 0.13 0.16 0.22 0.22 0.24 0.23 0.22 0.27 0.37 0.42 0.54 0.68 0.89 1.23 1.34 1.29 1.28 1.26 1.18 1.05 0.88 0.88 0.90 0.94 1.01 1.02 0.95
0.02 0.02 0.03 0.04 0.05 0.06 0.09 0.11 0.10 0.12 0.11 0.10 0.12 0.16 0.18 0.21 0.22 0.22 0.27 0.28 0.27 0.25 0.25 0.26 0.31 0.35 0.44 0.59 0.78 1.05 1.34 1.49 1.47 1.46 1.40 1.30 1.13 0.97 0.95 0.98 1.02 1.11 1.11
0.01 0.01 0.01 0.03 0.06 0.10 0.13 0.15 0.13 0.13 0.15 0.17 0.22 0.24 0.28 0.29 0.27 0.22 0.26 0.32 0.32 0.29 0.32 0.31 0.30 0.29 0.31 0.40 0.60 0.85 1.14 1.42 1.55 1.58 1.61 1.57 1.43 1.24 1.04 0.98 0.98 1.08 1.21
0.00 0.00 0.01 0.01 0.01 0.03 0.06 0.08 0.11 0.11 0.11 0.12 0.17 0.19 0.20 0.23 0.22 0.19 0.22 0.30 0.38 0.42 0.43 0.44 0.42 0.37 0.34 0.34 0.35 0.50 0.76 1.12 1.44 1.59 1.68 1.70 1.65 1.52 1.32 1.12 1.03 1.05 1.15
0.00 0.00 0.00 0.00 0.00 0.01 0.01 0.01 0.03 0.06 0.06 0.06 0.13 0.17 0.15 0.14 0.13 0.13 0.16 0.23 0.32 0.41 0.46 0.49 0.51 0.51 0.46 0.41 0.30 0.29 0.41 0.70 1.10 1.50 1.71 1.81 1.91 1.86 1.66 1.41 1.23 1.17 1.18
0.00 0.00 0.00 0.00 0.00 0.00 0.01 0.01 0.02 0.04 0.05 0.04 0.07 0.20 0.27 0.21 0.14 0.07 0.09 0.13 0.18 0.22 0.29 0.36 0.44 0.50 0.52 0.51 0.43 0.33 0.30 0.46 0.74 1.14 1.58 1.88 2.09 2.26 2.15 1.82 1.56 1.41 1.33
0.00 0.00 0.00 0.00 0.01 0.01 0.01 0.01 0.02 0.03 0.06 0.07 0.06 0.10 0.18 0.22 0.28 0.15 0.04 0.04 0.05 0.08 0.11 0.17 0.24 0.32 0.41 0.46 0.49 0.51 0.46 0.43 0.64 0.86 1.22 1.69 2.13 2.49 2.70 2.43 1.98 1.64 1.49
0.00 0.00 0.00 0.01 0.01 0.01 0.02 0.02 0.03 0.04 0.06 0.09 0.12 0.13 0.13 0.12 0.17 0.27 0.13 0.02 0.02 0.03 0.04 0.08 0.12 0.18 0.26 0.35 0.43 0.51 0.58 0.57 0.70 0.85 1.01 1.35 1.83 2.44 2.88 2.86 2.49 2.05 1.71
0.01 0.01 0.01 0.01 0.02 0.02 0.03 0.04 0.05 0.06 0.08 0.10 0.13 0.16 0.20 0.23 0.20 0.26 0.23 0.08 0.03 0.02 0.03 0.04 0.07 0.13 0.21 0.30 0.39 0.53 0.61 0.65 0.73 0.86 0.87 1.04 1.37 1.91 2.61 2.98 2.87 2.52 2.13
0.01 0.01 0.02 0.03 0.04 0.04 0.05 0.06 0.09 0.10 0.12 0.15 0.15 0.17 0.19 0.21 0.22 0.29 0.33 0.19 0.08 0.03 0.02 0.04 0.06 0.11 0.19 0.26 0.32 0.42 0.49 0.54 0.61 0.71 0.74 0.73 0.85 1.25 1.96 2.71 3.09 2.96 2.65
0.01 0.02 0.03 0.04 0.05 0.06 0.07 0.10 0.12 0.14 0.17 0.19 0.19 0.21 0.23 0.21 0.24 0.30 0.36 0.39 0.28 0.09 0.03 0.03 0.04 0.09 0.14 0.19 0.26 0.34 0.35 0.40 0.44 0.54 0.63 0.63 0.62 0.71 1.12 1.89 2.71 3.19 3.12
0.01 0.02 0.04 0.07 0.09 0.10 0.11 0.13 0.16 0.18 0.20 0.22 0.24 0.26 0.29 0.28 0.27 0.27 0.31 0.42 0.57 0.41 0.11 0.03 0.05 0.08 0.11 0.15 0.21 0.27 0.27 0.32 0.37 0.41 0.49 0.55 0.57 0.58 0.70 1.02 1.72 2.55 3.16
0.03 0.04 0.06 0.09 0.12 0.15 0.17 0.20 0.21 0.21 0.23 0.24 0.27 0.31 0.33 0.33 0.32 0.31 0.32 0.35 0.46 0.56 0.34 0.07 0.06 0.09 0.13 0.15 0.21 0.25 0.24 0.30 0.34 0.38 0.39 0.41 0.48 0.55 0.62 0.73 1.00 1.65 2.39
0.05 0.07 0.08 0.09 0.11 0.16 0.20 0.24 0.25 0.28 0.31 0.31 0.32 0.36 0.35 0.36 0.40 0.40 0.39 0.39 0.39 0.47 0.46 0.12 0.05 0.08 0.16 0.22 0.21 0.22 0.23 0.24 0.27 0.34 0.37 0.36 0.38 0.44 0.51 0.59 0.71 1.03 1.67
0.10 0.11 0.12 0.14 0.15 0.18 0.23 0.27 0.30 0.32 0.37 0.42 0.43 0.43 0.42 0.42 0.44 0.45 0.49 0.48 0.43 0.40 0.46 0.29 0.09 0.08 0.14 0.23 0.26 0.25 0.24 0.22 0.23 0.28 0.33 0.36 0.37 0.39 0.44 0.50 0.57 0.68 1.04
0.18 0.19 0.21 0.24 0.25 0.27 0.34 0.35 0.36 0.40 0.42 0.45 0.49 0.53 0.53 0.53 0.52 0.51 0.55 0.56 0.52 0.45 0.45 0.42 0.21 0.12 0.16 0.23 0.28 0.29 0.28 0.27 0.26 0.29 0.30 0.35 0.40 0.42 0.42 0.44 0.48 0.55 0.65
0.28 0.32 0.35 0.38 0.39 0.44 0.62 0.68 0.56 0.50 0.49 0.50 0.53 0.57 0.61 0.66 0.67 0.68 0.72 0.70 0.66 0.61 0.51 0.45 0.33 0.24 0.24 0.26 0.32 0.34 0.31 0.30 0.34 0.34 0.33 0.33 0.38 0.42 0.44 0.40 0.36 0.39 0.52
0.38 0.41 0.43 0.44 0.46 0.58 0.94 1.09 0.84 0.69 0.60 0.56 0.54 0.58 0.62 0.70 0.84 0.98 1.07 0.99 0.83 0.77 0.67 0.58 0.46 0.35 0.32 0.35 0.43 0.41 0.40 0.34 0.38 0.44 0.41 0.34 0.32 0.31 0.35 0.42 0.45 0.45 0.46
0.40 0.41 0.43 0.42 0.41 0.55 0.90 1.07 0.85 0.66 0.51 0.49 0.49 0.47 0.49 0.55 0.64 0.75 0.88 0.87 0.80 0.88 0.89 0.78 0.64 0.55 0.45 0.42 0.50 0.56 0.57 0.52 0.46 0.45 0.45 0.44 0.40 0.39 0.37 0.36 0.46 0.47 0.50
0.28 0.27 0.27 0.26 0.25 0.35 0.73 0.89 0.70 0.43 0.30 0.33 0.35 0.36 0.36 0.39 0.45 0.46 0.54 0.55 0.58 0.64 0.76 0.84 0.85 0.72 0.61 0.54 0.61 0.66 0.70 0.68 0.53 0.51 0.55 0.62 0.59 0.53 0.49 0.49 0.54 0.49 0.50
0.17 0.15 0.13 0.11 0.10 0.17 0.54 0.78 0.58 0.24 0.19 0.24 0.29 0.32 0.32 0.35 0.40 0.49 0.53 0.47 0.42 0.44 0.56 0.69 0.86 0.85 0.78 0.76 0.85 0.94 0.95 0.90 0.78 0.71 0.69 0.77 0.80 0.74 0.68 0.63 0.60 0.52 0.48
0.10 0.08 0.06 0.05 0.04 0.07 0.35 0.72 0.58 0.22 0.19 0.20 0.25 0.32 0.34 0.31 0.36 0.45 0.50 0.45 0.35 0.34 0.38 0.52 0.66 0.74 0.77 0.85 0.98 1.09 1.08 1.04 1.09 1.12 0.98 0.91 0.93 0.88 0.86 0.84 0.75 0.65 0.55
0.06 0.05 0.04 0.03 0.02 0.04 0.19 0.59 0.67 0.30 0.20 0.18 0.19 0.27 0.40 0.40 0.37 0.37 0.40 0.40 0.37 0.33 0.27 0.26 0.29 0.36 0.45 0.56 0.74 0.97 1.09 1.11 1.15 1.28 1.23 1.09 1.09 1.01 1.04 0.98 0.81 0.67 0.58